Location: Aressy
(43.2833°N, 0.3167°W)
Time: 21:24:00
(UTC+00:00)

COSMOS 2406 - Pass Details

Date: 28 January 2021
Orbit: 841 x 865 km, 71.0° (Epoch: 02 March)

Event Time Altitude Azimuth Distance (km) Brightness Sun altitude
Rises 17:36:56 0° 340° (NNW) 3,457 6.4 -5.7°
Reaches altitude 10° 17:39:35 10° 348° (NNW) 2,515 5.6 -6.2°
Maximum altitude 17:45:00 40° 57° (ENE) 1,251 3.7 -7.1°
Drops below altitude 10° 17:50:22 10° 127° (SE) 2,491 5.3 -8.0°
Sets 17:52:58 0° 134° (SE) 3,420 6.1 -8.5°
